GEFSCGP_prec_meanprecacc_102.txt.gz
Total_Precipitation_Accumulation
0.00 0.00 0.00 0.00 0.00 0.00 0.00 0.02 0.03 0.03 0.03 0.03 0.05 0.13 0.23 0.32 0.46 0.64 0.69 0.63 0.68 0.79 1.05 1.26 1.40 1.35 1.53 1.69 1.89 2.01 2.20 2.66 3.13 3.13 2.86 2.68 2.40 2.19 2.02 1.90 1.85 1.88 1.91 2.09
0.00 0.00 0.00 0.00 0.00 0.01 0.01 0.02 0.04 0.03 0.04 0.05 0.11 0.22 0.34 0.47 0.65 0.70 0.54 0.52 0.69 0.91 1.21 1.45 1.57 1.56 1.64 1.95 2.34 2.52 2.67 3.13 3.43 3.35 3.23 3.04 2.85 2.50 2.37 2.25 2.12 1.93 1.85 1.98
0.01 0.01 0.00 0.00 0.01 0.01 0.01 0.02 0.03 0.04 0.05 0.09 0.14 0.35 0.56 0.68 0.79 0.70 0.60 0.64 0.75 0.85 1.12 1.31 1.28 1.33 1.43 1.59 1.81 2.10 2.53 3.00 3.18 3.27 3.23 3.13 3.06 2.65 2.50 2.35 2.19 2.01 1.89 1.86
0.01 0.01 0.01 0.01 0.01 0.01 0.01 0.02 0.02 0.02 0.04 0.09 0.15 0.39 0.70 1.02 1.07 0.79 0.66 0.68 0.76 1.03 1.21 1.10 1.00 1.09 1.18 1.18 1.44 1.71 2.09 2.47 2.71 2.87 2.91 2.95 2.87 2.68 2.62 2.46 2.13 1.91 1.79 1.79
0.01 0.01 0.02 0.03 0.02 0.02 0.02 0.02 0.02 0.02 0.03 0.05 0.10 0.32 0.74 1.21 1.26 0.82 0.69 0.73 0.89 1.09 1.04 0.92 0.93 1.05 1.09 1.13 1.37 1.59 1.83 2.13 2.38 2.49 2.49 2.50 2.41 2.34 2.29 2.15 1.92 1.77 1.66 1.60
0.02 0.03 0.03 0.03 0.02 0.03 0.03 0.04 0.05 0.06 0.09 0.18 0.23 0.38 0.80 1.17 1.01 0.71 0.68 0.64 0.73 0.88 0.90 0.92 0.98 1.04 1.10 1.28 1.47 1.68 1.89 2.14 2.27 2.13 1.98 1.96 1.97 2.01 1.94 1.81 1.66 1.50 1.42 1.35
0.11 0.08 0.05 0.04 0.05 0.05 0.05 0.07 0.18 0.31 0.43 0.53 0.48 0.59 1.10 0.97 0.71 0.62 0.65 0.64 0.62 0.70 0.75 0.80 0.98 1.19 1.24 1.21 1.23 1.42 1.71 2.02 2.05 1.88 1.71 1.63 1.62 1.68 1.67 1.58 1.50 1.44 1.32 1.24
0.25 0.21 0.09 0.07 0.09 0.09 0.08 0.12 0.28 0.34 0.32 0.45 0.47 0.83 1.23 0.90 0.63 0.53 0.55 0.58 0.52 0.46 0.39 0.40 0.49 0.60 0.57 0.57 0.59 0.65 0.78 1.00 1.12 1.10 1.10 1.10 1.14 1.21 1.26 1.36 1.33 1.33 1.28 1.17
0.13 0.11 0.07 0.09 0.13 0.14 0.19 0.21 0.19 0.31 0.31 0.39 0.50 0.74 0.80 0.59 0.53 0.49 0.50 0.48 0.42 0.35 0.29 0.28 0.29 0.32 0.37 0.38 0.42 0.51 0.58 0.66 0.72 0.72 0.71 0.73 0.79 0.89 0.96 1.03 1.07 1.10 1.10 1.05
0.06 0.06 0.06 0.06 0.09 0.13 0.15 0.21 0.35 0.51 0.51 0.44 0.45 0.79 0.99 0.90 0.81 0.67 0.61 0.55 0.44 0.34 0.29 0.27 0.28 0.32 0.40 0.48 0.57 0.63 0.62 0.58 0.55 0.55 0.56 0.54 0.60 0.66 0.72 0.75 0.78 0.78 0.80 0.83
0.04 0.03 0.07 0.13 0.16 0.15 0.15 0.21 0.35 0.48 0.50 0.51 0.53 0.67 0.60 0.66 0.76 0.83 0.83 0.69 0.48 0.35 0.30 0.29 0.28 0.31 0.36 0.45 0.52 0.59 0.60 0.57 0.55 0.53 0.53 0.53 0.52 0.52 0.55 0.61 0.62 0.64 0.66 0.68
0.02 0.04 0.07 0.12 0.11 0.07 0.12 0.20 0.33 0.50 0.54 0.55 0.58 0.62 0.36 0.38 0.50 0.59 0.58 0.46 0.33 0.27 0.25 0.24 0.23 0.25 0.28 0.35 0.42 0.46 0.48 0.52 0.52 0.47 0.48 0.50 0.48 0.45 0.47 0.48 0.49 0.52 0.56 0.58
0.02 0.04 0.10 0.24 0.24 0.12 0.15 0.15 0.22 0.33 0.41 0.45 0.57 0.63 0.37 0.37 0.44 0.47 0.45 0.39 0.30 0.27 0.26 0.25 0.23 0.24 0.26 0.32 0.39 0.43 0.44 0.48 0.50 0.47 0.47 0.44 0.47 0.48 0.45 0.39 0.38 0.39 0.43 0.49
0.02 0.02 0.05 0.11 0.11 0.08 0.10 0.13 0.16 0.23 0.35 0.32 0.30 0.41 0.41 0.40 0.42 0.42 0.39 0.32 0.26 0.23 0.23 0.22 0.24 0.26 0.27 0.27 0.29 0.34 0.42 0.50 0.46 0.43 0.42 0.41 0.40 0.40 0.42 0.40 0.37 0.35 0.37 0.41
0.02 0.02 0.03 0.04 0.05 0.06 0.10 0.11 0.13 0.17 0.19 0.27 0.25 0.34 0.42 0.38 0.34 0.31 0.30 0.27 0.22 0.20 0.18 0.17 0.17 0.18 0.19 0.22 0.25 0.29 0.30 0.38 0.44 0.45 0.42 0.41 0.40 0.37 0.34 0.33 0.30 0.30 0.30 0.30
0.02 0.02 0.03 0.08 0.13 0.14 0.16 0.17 0.15 0.14 0.14 0.17 0.22 0.30 0.28 0.25 0.25 0.26 0.26 0.24 0.22 0.17 0.14 0.12 0.11 0.11 0.12 0.14 0.18 0.21 0.22 0.27 0.33 0.36 0.34 0.37 0.38 0.37 0.36 0.31 0.27 0.26 0.26 0.29
0.02 0.01 0.02 0.08 0.19 0.20 0.27 0.18 0.16 0.16 0.16 0.23 0.37 0.39 0.29 0.27 0.24 0.21 0.18 0.16 0.12 0.09 0.08 0.07 0.06 0.06 0.07 0.07 0.09 0.16 0.20 0.21 0.25 0.28 0.31 0.33 0.37 0.40 0.38 0.29 0.26 0.25 0.26 0.28
0.03 0.02 0.03 0.07 0.18 0.29 0.25 0.09 0.06 0.09 0.08 0.10 0.17 0.18 0.18 0.20 0.17 0.13 0.10 0.08 0.06 0.04 0.03 0.03 0.02 0.02 0.03 0.04 0.06 0.13 0.20 0.23 0.26 0.31 0.36 0.38 0.38 0.41 0.41 0.35 0.32 0.32 0.32 0.32
0.02 0.02 0.03 0.05 0.10 0.19 0.11 0.06 0.07 0.09 0.10 0.05 0.08 0.09 0.08 0.07 0.07 0.08 0.04 0.02 0.01 0.01 0.01 0.01 0.01 0.02 0.03 0.05 0.09 0.15 0.20 0.26 0.32 0.37 0.41 0.43 0.43 0.44 0.44 0.43 0.43 0.45 0.46 0.39
0.04 0.03 0.03 0.04 0.10 0.17 0.10 0.06 0.07 0.09 0.20 0.11 0.07 0.05 0.03 0.02 0.06 0.08 0.02 0.00 0.00 0.00 0.00 0.01 0.01 0.03 0.06 0.09 0.14 0.22 0.25 0.32 0.36 0.37 0.38 0.38 0.43 0.48 0.51 0.52 0.55 0.56 0.57 0.50
0.04 0.04 0.04 0.05 0.10 0.09 0.04 0.05 0.06 0.15 0.24 0.05 0.01 0.01 0.01 0.02 0.05 0.03 0.01 0.00 0.00 0.00 0.01 0.02 0.03 0.08 0.14 0.13 0.19 0.25 0.28 0.33 0.35 0.38 0.39 0.41 0.44 0.50 0.53 0.62 0.68 0.71 0.69 0.65
0.04 0.05 0.05 0.08 0.13 0.12 0.03 0.02 0.03 0.05 0.04 0.02 0.02 0.02 0.02 0.01 0.01 0.01 0.01 0.01 0.01 0.02 0.02 0.03 0.06 0.12 0.18 0.20 0.27 0.31 0.32 0.34 0.38 0.43 0.43 0.43 0.48 0.42 0.43 0.63 0.73 0.78 0.80 0.74
0.02 0.03 0.04 0.05 0.06 0.03 0.01 0.02 0.02 0.02 0.03 0.03 0.02 0.02 0.01 0.01 0.01 0.01 0.01 0.02 0.03 0.03 0.04 0.06 0.10 0.14 0.17 0.23 0.36 0.46 0.46 0.46 0.49 0.54 0.56 0.57 0.55 0.56 0.61 0.70 0.76 0.79 0.81 0.80
0.01 0.01 0.03 0.04 0.03 0.02 0.02 0.02 0.02 0.02 0.02 0.01 0.01 0.01 0.01 0.01 0.02 0.02 0.03 0.02 0.03 0.03 0.04 0.06 0.10 0.16 0.22 0.27 0.37 0.49 0.54 0.55 0.58 0.63 0.65 0.69 0.73 0.71 0.73 0.84 0.87 0.85 0.84 0.86
0.01 0.01 0.03 0.06 0.04 0.03 0.03 0.02 0.01 0.01 0.00 0.00 0.01 0.01 0.01 0.02 0.02 0.02 0.02 0.02 0.03 0.04 0.05 0.07 0.13 0.21 0.25 0.29 0.37 0.45 0.53 0.60 0.68 0.70 0.68 0.72 0.81 0.87 0.89 0.89 0.88 0.84 0.87 0.81
0.02 0.03 0.05 0.07 0.06 0.05 0.04 0.02 0.01 0.01 0.01 0.01 0.01 0.01 0.01 0.02 0.02 0.02 0.03 0.03 0.04 0.06 0.08 0.12 0.17 0.23 0.27 0.30 0.38 0.47 0.58 0.68 0.80 0.80 0.76 0.75 0.77 0.84 0.87 0.87 0.74 0.62 0.59 0.52

GEFSCGP_prec_meanprecacc_108.txt.gz
Total_Precipitation_Accumulation
0.00 0.00 0.00 0.00 0.00 0.00 0.01 0.02 0.04 0.03 0.03 0.04 0.07 0.15 0.25 0.36 0.50 0.70 0.74 0.66 0.69 0.80 1.06 1.27 1.41 1.36 1.54 1.71 1.92 2.06 2.27 2.69 3.15 3.15 2.88 2.70 2.42 2.21 2.03 1.91 1.85 1.88 1.92 2.10
0.00 0.00 0.00 0.00 0.01 0.01 0.01 0.03 0.04 0.03 0.04 0.05 0.12 0.24 0.38 0.51 0.71 0.75 0.60 0.55 0.70 0.92 1.23 1.46 1.58 1.57 1.65 1.96 2.37 2.59 2.74 3.15 3.44 3.36 3.23 3.05 2.86 2.51 2.38 2.26 2.12 1.93 1.85 1.98
0.01 0.01 0.00 0.00 0.01 0.01 0.02 0.03 0.03 0.04 0.05 0.09 0.16 0.39 0.60 0.72 0.83 0.75 0.65 0.68 0.77 0.87 1.14 1.33 1.30 1.34 1.45 1.60 1.84 2.15 2.56 3.01 3.18 3.28 3.24 3.14 3.07 2.66 2.50 2.36 2.20 2.01 1.89 1.86
0.01 0.01 0.01 0.01 0.01 0.01 0.02 0.02 0.02 0.03 0.05 0.11 0.17 0.43 0.74 1.05 1.10 0.84 0.70 0.71 0.78 1.06 1.24 1.12 1.01 1.10 1.19 1.19 1.45 1.72 2.10 2.47 2.72 2.87 2.91 2.96 2.87 2.68 2.63 2.46 2.13 1.91 1.79 1.79
0.01 0.02 0.02 0.03 0.02 0.02 0.02 0.02 0.03 0.03 0.03 0.06 0.11 0.34 0.77 1.24 1.29 0.85 0.71 0.74 0.90 1.11 1.05 0.93 0.94 1.06 1.10 1.14 1.37 1.60 1.83 2.13 2.38 2.49 2.49 2.50 2.41 2.34 2.30 2.16 1.93 1.77 1.66 1.60
0.02 0.03 0.03 0.03 0.02 0.03 0.03 0.05 0.06 0.07 0.10 0.20 0.24 0.39 0.82 1.18 1.04 0.74 0.70 0.64 0.74 0.90 0.91 0.93 0.98 1.04 1.11 1.29 1.47 1.69 1.90 2.15 2.28 2.13 1.98 1.97 1.98 2.01 1.94 1.81 1.66 1.51 1.42 1.35
0.11 0.08 0.05 0.04 0.05 0.05 0.06 0.09 0.20 0.34 0.45 0.56 0.48 0.59 1.11 0.97 0.72 0.63 0.65 0.64 0.63 0.71 0.76 0.80 0.98 1.20 1.24 1.22 1.24 1.43 1.72 2.03 2.06 1.89 1.72 1.64 1.63 1.69 1.68 1.59 1.50 1.44 1.33 1.24
0.25 0.21 0.09 0.07 0.09 0.09 0.09 0.13 0.29 0.36 0.33 0.46 0.47 0.84 1.23 0.90 0.63 0.53 0.55 0.58 0.52 0.46 0.39 0.40 0.49 0.60 0.58 0.58 0.59 0.65 0.79 1.01 1.13 1.11 1.10 1.11 1.14 1.21 1.27 1.37 1.33 1.33 1.28 1.17
0.13 0.11 0.07 0.09 0.13 0.14 0.19 0.21 0.20 0.31 0.31 0.40 0.51 0.74 0.80 0.59 0.53 0.49 0.50 0.48 0.42 0.35 0.29 0.28 0.29 0.32 0.37 0.38 0.42 0.51 0.58 0.66 0.72 0.72 0.71 0.73 0.79 0.89 0.96 1.03 1.07 1.10 1.11 1.05
0.06 0.06 0.07 0.06 0.09 0.13 0.15 0.22 0.35 0.51 0.52 0.44 0.45 0.79 0.99 0.90 0.81 0.67 0.61 0.55 0.44 0.34 0.29 0.27 0.28 0.32 0.40 0.48 0.57 0.63 0.62 0.58 0.55 0.55 0.56 0.54 0.60 0.66 0.72 0.75 0.78 0.79 0.80 0.84
0.04 0.04 0.07 0.13 0.16 0.15 0.15 0.21 0.35 0.48 0.50 0.52 0.54 0.67 0.60 0.66 0.76 0.83 0.83 0.69 0.48 0.35 0.30 0.29 0.28 0.31 0.36 0.45 0.52 0.59 0.60 0.57 0.55 0.53 0.53 0.53 0.52 0.52 0.55 0.61 0.62 0.65 0.66 0.68
0.02 0.04 0.07 0.13 0.11 0.07 0.12 0.20 0.33 0.50 0.54 0.55 0.59 0.62 0.36 0.38 0.50 0.59 0.58 0.46 0.33 0.27 0.25 0.24 0.23 0.25 0.28 0.35 0.42 0.46 0.48 0.52 0.52 0.47 0.48 0.50 0.48 0.45 0.47 0.48 0.49 0.52 0.56 0.58
0.02 0.04 0.10 0.24 0.24 0.12 0.15 0.15 0.22 0.33 0.41 0.45 0.57 0.63 0.37 0.37 0.44 0.47 0.45 0.39 0.30 0.27 0.26 0.25 0.23 0.24 0.26 0.32 0.39 0.43 0.44 0.48 0.50 0.47 0.47 0.44 0.47 0.48 0.45 0.40 0.38 0.39 0.43 0.49
0.02 0.02 0.05 0.11 0.11 0.08 0.11 0.13 0.16 0.23 0.35 0.32 0.30 0.41 0.41 0.40 0.42 0.42 0.39 0.32 0.26 0.23 0.23 0.22 0.24 0.26 0.27 0.27 0.29 0.34 0.42 0.50 0.46 0.43 0.42 0.41 0.40 0.40 0.42 0.40 0.37 0.35 0.37 0.42
0.02 0.02 0.03 0.04 0.05 0.06 0.10 0.11 0.13 0.17 0.19 0.27 0.25 0.34 0.42 0.38 0.34 0.31 0.30 0.27 0.22 0.20 0.18 0.17 0.17 0.18 0.19 0.22 0.25 0.29 0.30 0.38 0.44 0.45 0.42 0.41 0.40 0.37 0.34 0.33 0.30 0.30 0.30 0.30
0.02 0.02 0.03 0.08 0.13 0.14 0.16 0.17 0.15 0.14 0.14 0.17 0.22 0.30 0.28 0.25 0.25 0.26 0.26 0.24 0.22 0.17 0.14 0.12 0.11 0.11 0.12 0.14 0.18 0.21 0.22 0.27 0.33 0.36 0.34 0.37 0.38 0.37 0.36 0.31 0.27 0.26 0.27 0.29
0.02 0.02 0.02 0.08 0.19 0.20 0.27 0.18 0.16 0.16 0.16 0.23 0.37 0.39 0.29 0.27 0.24 0.21 0.18 0.16 0.12 0.09 0.08 0.07 0.06 0.06 0.07 0.07 0.09 0.16 0.20 0.21 0.25 0.28 0.31 0.33 0.37 0.40 0.38 0.29 0.26 0.25 0.26 0.29
0.03 0.02 0.03 0.08 0.18 0.29 0.25 0.09 0.06 0.09 0.08 0.10 0.17 0.18 0.18 0.20 0.17 0.13 0.10 0.08 0.06 0.04 0.03 0.03 0.02 0.02 0.03 0.04 0.06 0.13 0.20 0.23 0.26 0.31 0.36 0.38 0.38 0.41 0.41 0.35 0.32 0.32 0.32 0.32
0.03 0.02 0.03 0.06 0.10 0.19 0.11 0.06 0.07 0.09 0.10 0.05 0.08 0.09 0.08 0.07 0.07 0.08 0.04 0.02 0.01 0.01 0.01 0.01 0.01 0.02 0.03 0.05 0.09 0.15 0.20 0.26 0.32 0.37 0.42 0.43 0.43 0.44 0.44 0.43 0.43 0.45 0.46 0.40
0.04 0.03 0.04 0.04 0.10 0.17 0.10 0.06 0.07 0.09 0.20 0.11 0.07 0.05 0.03 0.02 0.06 0.08 0.02 0.00 0.00 0.00 0.00 0.01 0.01 0.03 0.06 0.09 0.14 0.22 0.25 0.32 0.36 0.37 0.38 0.38 0.43 0.49 0.51 0.53 0.55 0.56 0.58 0.51
0.05 0.04 0.05 0.06 0.10 0.09 0.04 0.05 0.06 0.15 0.24 0.05 0.01 0.01 0.01 0.02 0.05 0.03 0.01 0.00 0.00 0.00 0.01 0.02 0.03 0.08 0.14 0.13 0.19 0.25 0.28 0.33 0.35 0.38 0.39 0.41 0.44 0.50 0.54 0.62 0.68 0.72 0.70 0.66
0.05 0.06 0.07 0.10 0.14 0.12 0.03 0.02 0.03 0.06 0.04 0.02 0.02 0.02 0.02 0.01 0.01 0.01 0.01 0.01 0.01 0.02 0.02 0.03 0.06 0.12 0.18 0.20 0.27 0.31 0.32 0.34 0.38 0.43 0.43 0.43 0.48 0.42 0.43 0.63 0.73 0.79 0.81 0.75
0.03 0.04 0.04 0.05 0.07 0.03 0.01 0.02 0.02 0.02 0.03 0.03 0.02 0.02 0.01 0.01 0.01 0.01 0.01 0.02 0.03 0.03 0.04 0.06 0.10 0.14 0.17 0.23 0.36 0.46 0.46 0.46 0.49 0.54 0.56 0.57 0.55 0.56 0.61 0.71 0.77 0.80 0.82 0.81
0.01 0.02 0.03 0.04 0.03 0.02 0.02 0.02 0.02 0.02 0.02 0.01 0.01 0.01 0.01 0.01 0.02 0.02 0.03 0.02 0.03 0.03 0.04 0.06 0.11 0.16 0.22 0.27 0.37 0.49 0.54 0.55 0.58 0.63 0.65 0.69 0.73 0.71 0.73 0.84 0.87 0.85 0.85 0.87
0.01 0.01 0.03 0.06 0.04 0.03 0.03 0.02 0.01 0.01 0.00 0.00 0.01 0.01 0.01 0.02 0.02 0.02 0.02 0.02 0.03 0.04 0.05 0.08 0.13 0.21 0.25 0.29 0.37 0.45 0.53 0.60 0.68 0.70 0.68 0.72 0.81 0.88 0.89 0.89 0.88 0.85 0.87 0.81
0.02 0.03 0.06 0.07 0.06 0.05 0.04 0.02 0.01 0.01 0.01 0.01 0.01 0.01 0.01 0.02 0.02 0.02 0.03 0.03 0.04 0.06 0.08 0.12 0.17 0.23 0.27 0.30 0.38 0.47 0.58 0.68 0.80 0.80 0.76 0.75 0.77 0.84 0.87 0.87 0.75 0.63 0.59 0.52

GEFSCGP_prec_meanprecacc_114.txt.gz
Total_Precipitation_Accumulation
0.00 0.00 0.00 0.00 0.00 0.00 0.01 0.03 0.07 0.07 0.05 0.07 0.17 0.31 0.40 0.42 0.54 0.76 0.80 0.72 0.77 0.88 1.13 1.33 1.47 1.44 1.59 1.74 1.94 2.08 2.31 2.74 3.20 3.19 2.92 2.73 2.45 2.23 2.05 1.93 1.87 1.89 1.92 2.11
0.00 0.00 0.00 0.00 0.01 0.01 0.01 0.04 0.10 0.09 0.06 0.08 0.18 0.38 0.49 0.56 0.75 0.82 0.66 0.62 0.78 1.00 1.31 1.54 1.63 1.67 1.76 2.02 2.41 2.62 2.78 3.19 3.48 3.40 3.26 3.06 2.87 2.52 2.40 2.27 2.13 1.94 1.86 1.99
0.01 0.01 0.00 0.00 0.01 0.01 0.03 0.05 0.09 0.07 0.06 0.12 0.21 0.50 0.68 0.79 0.87 0.80 0.71 0.75 0.85 0.93 1.22 1.39 1.35 1.39 1.49 1.64 1.87 2.18 2.58 3.03 3.21 3.31 3.25 3.15 3.08 2.67 2.51 2.36 2.21 2.02 1.90 1.87
0.01 0.01 0.01 0.01 0.02 0.01 0.05 0.04 0.03 0.03 0.08 0.27 0.30 0.66 0.93 1.14 1.16 0.89 0.79 0.80 0.85 1.08 1.27 1.16 1.05 1.15 1.22 1.21 1.46 1.74 2.12 2.48 2.74 2.89 2.93 2.98 2.89 2.69 2.63 2.46 2.13 1.91 1.79 1.80
0.02 0.02 0.02 0.03 0.02 0.02 0.03 0.03 0.03 0.04 0.08 0.22 0.25 0.55 0.97 1.34 1.41 0.94 0.79 0.83 0.96 1.14 1.07 0.96 0.97 1.08 1.12 1.15 1.39 1.61 1.85 2.15 2.40 2.51 2.51 2.53 2.44 2.36 2.30 2.16 1.93 1.78 1.66 1.60
0.02 0.03 0.03 0.03 0.02 0.03 0.03 0.05 0.08 0.12 0.23 0.44 0.35 0.49 0.98 1.33 1.17 0.91 0.79 0.73 0.82 0.92 0.92 0.95 1.00 1.06 1.12 1.32 1.52 1.71 1.93 2.17 2.29 2.14 2.00 1.99 2.01 2.04 1.96 1.83 1.68 1.52 1.43 1.36
0.12 0.09 0.06 0.04 0.05 0.05 0.06 0.12 0.40 0.64 0.84 0.79 0.54 0.63 1.19 1.06 0.76 0.68 0.71 0.68 0.67 0.72 0.76 0.81 0.99 1.20 1.26 1.26 1.26 1.44 1.74 2.05 2.07 1.91 1.74 1.66 1.66 1.72 1.70 1.61 1.52 1.45 1.33 1.25
0.26 0.23 0.10 0.07 0.09 0.10 0.10 0.18 0.50 0.61 0.59 0.62 0.52 0.88 1.27 0.93 0.65 0.54 0.56 0.59 0.53 0.47 0.39 0.41 0.50 0.60 0.58 0.58 0.59 0.66 0.80 1.02 1.14 1.12 1.12 1.12 1.16 1.23 1.28 1.38 1.34 1.34 1.29 1.18
0.14 0.13 0.07 0.09 0.13 0.14 0.20 0.23 0.22 0.34 0.38 0.52 0.56 0.78 0.84 0.64 0.56 0.50 0.51 0.48 0.42 0.35 0.29 0.28 0.29 0.32 0.37 0.38 0.42 0.51 0.59 0.67 0.72 0.72 0.71 0.74 0.80 0.90 0.97 1.04 1.07 1.11 1.11 1.06
0.08 0.07 0.07 0.06 0.09 0.13 0.15 0.22 0.35 0.52 0.56 0.52 0.54 0.86 1.05 0.95 0.82 0.67 0.61 0.55 0.44 0.34 0.29 0.27 0.28 0.32 0.40 0.48 0.57 0.63 0.63 0.59 0.55 0.55 0.56 0.54 0.60 0.66 0.72 0.76 0.78 0.79 0.81 0.85
0.04 0.04 0.08 0.13 0.16 0.16 0.16 0.21 0.36 0.49 0.51 0.55 0.63 0.76 0.64 0.68 0.76 0.84 0.83 0.69 0.48 0.35 0.30 0.29 0.28 0.31 0.36 0.45 0.52 0.59 0.60 0.57 0.55 0.53 0.53 0.53 0.52 0.52 0.55 0.61 0.63 0.65 0.67 0.69
0.02 0.04 0.08 0.14 0.12 0.07 0.13 0.20 0.33 0.51 0.55 0.56 0.61 0.66 0.39 0.40 0.51 0.60 0.59 0.46 0.33 0.27 0.25 0.24 0.23 0.25 0.28 0.35 0.42 0.46 0.48 0.52 0.52 0.47 0.48 0.50 0.48 0.45 0.47 0.49 0.50 0.53 0.57 0.60
0.02 0.04 0.12 0.32 0.32 0.14 0.15 0.15 0.22 0.33 0.41 0.46 0.58 0.65 0.39 0.38 0.47 0.48 0.46 0.39 0.30 0.27 0.26 0.25 0.23 0.24 0.26 0.32 0.39 0.43 0.44 0.48 0.50 0.47 0.47 0.44 0.47 0.48 0.46 0.40 0.39 0.40 0.44 0.51
0.02 0.02 0.08 0.31 0.33 0.16 0.12 0.13 0.16 0.23 0.35 0.32 0.32 0.44 0.42 0.40 0.44 0.43 0.39 0.32 0.26 0.23 0.23 0.22 0.24 0.26 0.27 0.27 0.29 0.34 0.42 0.50 0.46 0.43 0.42 0.41 0.40 0.40 0.43 0.41 0.37 0.36 0.38 0.43
0.02 0.02 0.04 0.08 0.09 0.11 0.12 0.12 0.13 0.17 0.19 0.28 0.27 0.38 0.43 0.39 0.35 0.31 0.30 0.27 0.22 0.20 0.18 0.17 0.17 0.18 0.19 0.22 0.25 0.29 0.30 0.38 0.44 0.45 0.42 0.41 0.40 0.37 0.35 0.33 0.31 0.31 0.31 0.31
0.02 0.02 0.03 0.09 0.15 0.15 0.17 0.17 0.15 0.14 0.14 0.17 0.22 0.32 0.29 0.26 0.26 0.26 0.26 0.24 0.22 0.17 0.14 0.12 0.11 0.11 0.12 0.14 0.18 0.21 0.22 0.27 0.33 0.36 0.35 0.37 0.38 0.37 0.37 0.31 0.27 0.27 0.28 0.30
0.02 0.02 0.02 0.09 0.22 0.23 0.28 0.18 0.16 0.17 0.16 0.23 0.37 0.39 0.29 0.28 0.24 0.21 0.18 0.16 0.12 0.09 0.08 0.07 0.06 0.06 0.07 0.07 0.09 0.16 0.20 0.21 0.25 0.28 0.31 0.33 0.37 0.40 0.38 0.30 0.26 0.26 0.27 0.30
0.03 0.02 0.04 0.09 0.22 0.32 0.28 0.09 0.06 0.09 0.08 0.10 0.17 0.18 0.18 0.20 0.17 0.13 0.10 0.08 0.06 0.04 0.03 0.03 0.03 0.02 0.03 0.04 0.06 0.13 0.20 0.23 0.26 0.31 0.36 0.38 0.38 0.41 0.41 0.35 0.33 0.33 0.34 0.34
0.03 0.03 0.04 0.07 0.14 0.23 0.14 0.07 0.07 0.09 0.10 0.05 0.08 0.09 0.08 0.07 0.07 0.08 0.04 0.02 0.01 0.01 0.01 0.01 0.01 0.02 0.03 0.05 0.09 0.15 0.20 0.26 0.32 0.37 0.42 0.43 0.43 0.44 0.44 0.44 0.45 0.47 0.48 0.42
0.04 0.04 0.04 0.05 0.12 0.23 0.15 0.09 0.08 0.09 0.20 0.11 0.07 0.05 0.03 0.03 0.06 0.08 0.02 0.00 0.00 0.00 0.00 0.01 0.01 0.03 0.06 0.09 0.14 0.22 0.26 0.32 0.36 0.37 0.38 0.38 0.43 0.49 0.51 0.53 0.57 0.59 0.61 0.54
0.06 0.05 0.05 0.06 0.11 0.13 0.11 0.08 0.07 0.16 0.25 0.05 0.02 0.01 0.01 0.02 0.05 0.03 0.01 0.00 0.00 0.00 0.01 0.02 0.03 0.08 0.14 0.13 0.19 0.25 0.28 0.33 0.35 0.38 0.39 0.41 0.44 0.50 0.54 0.63 0.70 0.74 0.72 0.69
0.07 0.07 0.09 0.12 0.19 0.19 0.11 0.06 0.08 0.09 0.05 0.02 0.02 0.02 0.02 0.01 0.01 0.01 0.01 0.01 0.01 0.02 0.02 0.03 0.06 0.12 0.18 0.20 0.27 0.31 0.32 0.34 0.38 0.43 0.43 0.43 0.49 0.42 0.43 0.64 0.75 0.81 0.83 0.78
0.04 0.06 0.10 0.15 0.19 0.12 0.06 0.07 0.06 0.05 0.04 0.03 0.02 0.02 0.01 0.01 0.01 0.01 0.01 0.02 0.03 0.03 0.04 0.06 0.10 0.14 0.17 0.23 0.36 0.46 0.46 0.46 0.49 0.54 0.56 0.57 0.55 0.57 0.62 0.72 0.78 0.81 0.84 0.83
0.04 0.05 0.07 0.13 0.18 0.14 0.10 0.06 0.05 0.03 0.02 0.01 0.01 0.01 0.01 0.01 0.02 0.02 0.03 0.03 0.03 0.03 0.04 0.06 0.11 0.16 0.22 0.27 0.37 0.49 0.54 0.55 0.58 0.64 0.65 0.69 0.73 0.72 0.74 0.86 0.88 0.86 0.86 0.88
0.05 0.05 0.06 0.12 0.14 0.13 0.14 0.07 0.03 0.01 0.01 0.01 0.01 0.01 0.02 0.02 0.02 0.02 0.02 0.02 0.03 0.04 0.05 0.08 0.13 0.21 0.25 0.29 0.37 0.45 0.53 0.60 0.68 0.71 0.69 0.73 0.81 0.88 0.90 0.90 0.89 0.85 0.88 0.82
0.03 0.06 0.10 0.12 0.09 0.06 0.07 0.05 0.02 0.01 0.02 0.01 0.01 0.01 0.01 0.02 0.02 0.02 0.03 0.03 0.04 0.06 0.08 0.12 0.17 0.23 0.27 0.30 0.38 0.47 0.58 0.68 0.80 0.81 0.76 0.75 0.77 0.84 0.88 0.88 0.76 0.63 0.60 0.53

GEFSCGP_prec_meanprecacc_120.txt.gz
Total_Precipitation_Accumulation
0.00 0.00 0.00 0.00 0.01 0.01 0.01 0.04 0.10 0.12 0.10 0.16 0.26 0.45 0.59 0.56 0.68 1.00 1.12 1.00 0.94 1.05 1.29 1.47 1.60 1.54 1.69 1.84 2.03 2.14 2.38 2.80 3.23 3.21 2.94 2.75 2.47 2.26 2.08 1.95 1.88 1.90 1.93 2.11
0.00 0.01 0.00 0.01 0.01 0.01 0.02 0.05 0.13 0.13 0.12 0.20 0.33 0.54 0.68 0.75 0.94 1.06 0.95 0.87 1.00 1.18 1.46 1.64 1.70 1.72 1.81 2.07 2.45 2.65 2.81 3.21 3.50 3.42 3.27 3.08 2.89 2.54 2.44 2.29 2.14 1.95 1.86 1.99
0.01 0.01 0.00 0.01 0.01 0.01 0.03 0.06 0.11 0.11 0.17 0.28 0.35 0.69 0.84 0.94 1.07 1.03 0.95 1.09 1.13 1.11 1.35 1.48 1.41 1.42 1.51 1.67 1.89 2.19 2.60 3.04 3.22 3.32 3.26 3.16 3.09 2.68 2.53 2.38 2.22 2.02 1.90 1.87
0.01 0.01 0.01 0.01 0.02 0.02 0.05 0.04 0.04 0.07 0.14 0.38 0.44 0.88 1.07 1.27 1.34 1.13 1.05 1.05 1.06 1.22 1.38 1.24 1.09 1.18 1.24 1.23 1.48 1.76 2.14 2.50 2.75 2.90 2.94 2.98 2.89 2.69 2.63 2.47 2.14 1.92 1.80 1.80
0.02 0.02 0.02 0.04 0.02 0.02 0.03 0.03 0.05 0.09 0.15 0.34 0.37 0.69 1.13 1.45 1.56 1.20 1.07 1.01 1.07 1.21 1.15 1.03 1.01 1.11 1.14 1.17 1.41 1.63 1.87 2.17 2.41 2.52 2.52 2.53 2.44 2.36 2.31 2.17 1.94 1.78 1.67 1.61
0.02 0.04 0.03 0.03 0.03 0.03 0.04 0.06 0.11 0.16 0.30 0.54 0.47 0.60 1.07 1.38 1.22 1.05 0.99 0.83 0.89 0.98 0.98 0.99 1.04 1.10 1.16 1.34 1.54 1.72 1.94 2.18 2.30 2.16 2.01 2.00 2.01 2.04 1.97 1.83 1.68 1.52 1.43 1.36
0.12 0.10 0.07 0.05 0.05 0.05 0.07 0.14 0.43 0.69 0.95 0.86 0.59 0.71 1.24 1.07 0.78 0.71 0.80 0.79 0.77 0.77 0.81 0.85 1.03 1.24 1.30 1.28 1.27 1.45 1.75 2.06 2.08 1.91 1.74 1.67 1.66 1.72 1.71 1.61 1.52 1.45 1.33 1.25
0.27 0.25 0.12 0.08 0.10 0.10 0.10 0.21 0.55 0.68 0.71 0.72 0.61 0.97 1.33 0.94 0.66 0.56 0.63 0.66 0.57 0.51 0.44 0.45 0.55 0.64 0.60 0.59 0.60 0.66 0.80 1.03 1.14 1.12 1.12 1.12 1.16 1.23 1.28 1.38 1.34 1.34 1.29 1.18
0.15 0.13 0.08 0.10 0.14 0.15 0.21 0.25 0.24 0.40 0.54 0.77 0.73 0.89 0.88 0.67 0.60 0.52 0.55 0.52 0.44 0.42 0.35 0.32 0.33 0.34 0.37 0.38 0.43 0.51 0.59 0.67 0.73 0.73 0.71 0.74 0.80 0.90 0.97 1.04 1.07 1.11 1.12 1.06
0.08 0.07 0.07 0.07 0.11 0.14 0.17 0.24 0.37 0.57 0.68 0.71 0.73 0.99 1.10 0.98 0.84 0.69 0.66 0.60 0.45 0.37 0.32 0.29 0.29 0.32 0.40 0.49 0.57 0.63 0.63 0.59 0.55 0.55 0.56 0.54 0.60 0.66 0.72 0.76 0.79 0.79 0.81 0.85
0.04 0.04 0.08 0.14 0.18 0.18 0.18 0.23 0.38 0.52 0.55 0.62 0.76 0.83 0.66 0.68 0.77 0.85 0.90 0.76 0.51 0.37 0.31 0.30 0.28 0.31 0.36 0.45 0.52 0.59 0.60 0.57 0.55 0.53 0.53 0.53 0.52 0.52 0.55 0.62 0.63 0.65 0.67 0.69
0.03 0.04 0.08 0.15 0.14 0.09 0.14 0.22 0.35 0.54 0.58 0.61 0.66 0.69 0.40 0.41 0.51 0.61 0.62 0.52 0.37 0.29 0.26 0.24 0.23 0.25 0.28 0.35 0.42 0.46 0.48 0.52 0.52 0.47 0.48 0.50 0.48 0.45 0.47 0.49 0.50 0.53 0.57 0.60
0.02 0.05 0.13 0.34 0.34 0.15 0.16 0.16 0.24 0.35 0.43 0.51 0.62 0.68 0.40 0.39 0.48 0.49 0.48 0.41 0.32 0.28 0.26 0.25 0.24 0.24 0.26 0.32 0.39 0.43 0.44 0.48 0.50 0.47 0.47 0.44 0.47 0.48 0.46 0.40 0.39 0.40 0.44 0.51
0.03 0.03 0.10 0.35 0.38 0.17 0.12 0.14 0.17 0.25 0.38 0.38 0.35 0.45 0.43 0.41 0.48 0.45 0.40 0.33 0.27 0.23 0.23 0.22 0.24 0.26 0.27 0.27 0.29 0.34 0.42 0.50 0.46 0.43 0.42 0.41 0.40 0.40 0.43 0.41 0.37 0.36 0.38 0.43
0.02 0.03 0.06 0.11 0.13 0.14 0.13 0.12 0.13 0.18 0.21 0.30 0.28 0.39 0.44 0.40 0.38 0.33 0.31 0.27 0.22 0.20 0.18 0.17 0.17 0.18 0.19 0.22 0.25 0.29 0.30 0.38 0.44 0.45 0.42 0.41 0.40 0.37 0.35 0.33 0.31 0.31 0.31 0.31
0.03 0.03 0.04 0.13 0.19 0.21 0.21 0.19 0.15 0.15 0.15 0.20 0.24 0.33 0.30 0.27 0.28 0.28 0.26 0.24 0.23 0.18 0.14 0.12 0.11 0.11 0.12 0.14 0.18 0.21 0.22 0.27 0.33 0.36 0.35 0.37 0.38 0.37 0.37 0.31 0.27 0.27 0.28 0.30
0.04 0.04 0.04 0.11 0.26 0.29 0.32 0.21 0.18 0.18 0.17 0.26 0.39 0.40 0.29 0.29 0.25 0.21 0.19 0.16 0.13 0.10 0.08 0.07 0.06 0.07 0.08 0.07 0.09 0.16 0.20 0.21 0.25 0.28 0.31 0.33 0.37 0.40 0.38 0.30 0.26 0.26 0.27 0.30
0.04 0.06 0.09 0.12 0.25 0.36 0.32 0.13 0.10 0.12 0.11 0.12 0.18 0.19 0.18 0.20 0.18 0.14 0.10 0.08 0.06 0.04 0.03 0.03 0.03 0.03 0.03 0.04 0.06 0.13 0.20 0.23 0.26 0.31 0.36 0.38 0.38 0.41 0.41 0.35 0.33 0.33 0.34 0.34
0.05 0.04 0.06 0.10 0.17 0.27 0.19 0.12 0.12 0.14 0.14 0.07 0.09 0.10 0.09 0.08 0.07 0.08 0.05 0.03 0.02 0.01 0.01 0.02 0.02 0.02 0.03 0.05 0.09 0.15 0.20 0.26 0.32 0.37 0.42 0.43 0.43 0.44 0.45 0.44 0.45 0.47 0.49 0.43
0.07 0.06 0.08 0.09 0.16 0.27 0.19 0.15 0.13 0.13 0.25 0.14 0.10 0.07 0.05 0.04 0.07 0.09 0.03 0.01 0.01 0.01 0.01 0.02 0.02 0.04 0.06 0.09 0.14 0.22 0.26 0.32 0.36 0.37 0.38 0.38 0.43 0.49 0.51 0.54 0.57 0.59 0.61 0.54
0.15 0.12 0.12 0.12 0.16 0.18 0.20 0.14 0.11 0.21 0.30 0.10 0.06 0.04 0.03 0.03 0.06 0.04 0.02 0.01 0.01 0.01 0.01 0.02 0.04 0.08 0.14 0.13 0.19 0.25 0.28 0.33 0.35 0.38 0.39 0.41 0.44 0.50 0.54 0.63 0.70 0.74 0.72 0.69
0.20 0.21 0.21 0.22 0.29 0.29 0.22 0.15 0.17 0.20 0.13 0.08 0.06 0.04 0.03 0.02 0.02 0.02 0.01 0.01 0.02 0.02 0.03 0.03 0.06 0.12 0.18 0.20 0.27 0.31 0.32 0.34 0.38 0.43 0.43 0.43 0.49 0.42 0.43 0.64 0.75 0.81 0.84 0.78
0.15 0.20 0.26 0.29 0.29 0.22 0.20 0.16 0.16 0.16 0.13 0.10 0.07 0.05 0.04 0.03 0.03 0.02 0.02 0.03 0.03 0.03 0.04 0.06 0.10 0.14 0.17 0.23 0.36 0.46 0.46 0.46 0.49 0.54 0.56 0.57 0.56 0.57 0.62 0.72 0.78 0.81 0.84 0.83
0.16 0.16 0.21 0.26 0.27 0.22 0.18 0.18 0.14 0.10 0.10 0.08 0.04 0.04 0.04 0.04 0.03 0.04 0.04 0.03 0.04 0.04 0.05 0.07 0.11 0.16 0.22 0.27 0.38 0.50 0.54 0.55 0.58 0.64 0.65 0.69 0.73 0.72 0.74 0.86 0.89 0.86 0.87 0.89
0.16 0.14 0.19 0.24 0.26 0.25 0.24 0.20 0.15 0.09 0.06 0.05 0.04 0.04 0.03 0.04 0.04 0.04 0.04 0.04 0.05 0.05 0.06 0.09 0.14 0.21 0.26 0.30 0.37 0.45 0.53 0.60 0.69 0.71 0.69 0.73 0.81 0.88 0.90 0.90 0.90 0.86 0.88 0.83
0.19 0.17 0.20 0.24 0.22 0.19 0.15 0.15 0.10 0.07 0.07 0.05 0.04 0.03 0.03 0.03 0.04 0.03 0.03 0.04 0.05 0.07 0.10 0.14 0.19 0.24 0.28 0.31 0.39 0.47 0.58 0.68 0.81 0.81 0.76 0.75 0.77 0.84 0.88 0.88 0.76 0.63 0.60 0.53

GEFSCGP_prec_meanprecacc_126.txt.gz
Total_Precipitation_Accumulation
0.00 0.00 0.00 0.00 0.01 0.01 0.01 0.04 0.10 0.12 0.10 0.16 0.27 0.46 0.60 0.58 0.71 1.05 1.19 1.11 1.06 1.20 1.47 1.67 1.82 1.80 1.93 2.04 2.19 2.27 2.49 2.90 3.29 3.25 2.97 2.77 2.49 2.28 2.11 1.98 1.91 1.93 1.95 2.12
0.00 0.01 0.00 0.01 0.01 0.01 0.02 0.06 0.13 0.14 0.12 0.20 0.33 0.55 0.70 0.77 0.97 1.11 1.00 0.94 1.09 1.29 1.59 1.81 1.90 1.92 2.04 2.24 2.59 2.76 2.89 3.27 3.53 3.43 3.28 3.08 2.90 2.55 2.45 2.35 2.21 1.98 1.88 2.00
0.01 0.01 0.01 0.01 0.01 0.02 0.03 0.06 0.11 0.11 0.17 0.29 0.36 0.70 0.85 0.96 1.09 1.06 0.99 1.14 1.19 1.18 1.44 1.58 1.54 1.56 1.63 1.75 1.96 2.25 2.64 3.06 3.23 3.33 3.27 3.16 3.09 2.68 2.54 2.39 2.23 2.04 1.91 1.88
0.01 0.01 0.01 0.01 0.02 0.02 0.05 0.05 0.05 0.08 0.15 0.38 0.44 0.88 1.08 1.29 1.36 1.17 1.10 1.09 1.09 1.26 1.44 1.33 1.17 1.27 1.32 1.29 1.52 1.79 2.16 2.51 2.76 2.91 2.95 2.98 2.89 2.69 2.63 2.47 2.14 1.92 1.80 1.80
0.02 0.02 0.02 0.04 0.02 0.02 0.04 0.04 0.06 0.09 0.16 0.34 0.38 0.69 1.13 1.46 1.57 1.22 1.10 1.05 1.10 1.24 1.20 1.09 1.08 1.18 1.22 1.26 1.48 1.67 1.88 2.17 2.42 2.53 2.53 2.54 2.44 2.36 2.31 2.17 1.94 1.78 1.67 1.61
0.02 0.04 0.04 0.03 0.03 0.04 0.04 0.07 0.12 0.16 0.30 0.55 0.47 0.60 1.07 1.39 1.23 1.06 1.00 0.85 0.91 1.00 1.02 1.04 1.09 1.15 1.22 1.43 1.64 1.80 1.97 2.19 2.31 2.16 2.01 2.00 2.02 2.04 1.97 1.83 1.68 1.52 1.43 1.36
0.13 0.10 0.07 0.05 0.06 0.06 0.07 0.14 0.44 0.69 0.95 0.86 0.59 0.71 1.24 1.07 0.78 0.72 0.80 0.80 0.78 0.79 0.85 0.89 1.06 1.27 1.36 1.38 1.36 1.55 1.81 2.07 2.09 1.91 1.74 1.67 1.66 1.72 1.71 1.61 1.52 1.45 1.33 1.25
0.28 0.25 0.12 0.09 0.11 0.11 0.11 0.21 0.55 0.68 0.71 0.72 0.61 0.97 1.33 0.94 0.66 0.56 0.64 0.66 0.58 0.53 0.46 0.46 0.57 0.68 0.71 0.70 0.68 0.72 0.83 1.04 1.15 1.12 1.12 1.12 1.16 1.23 1.28 1.38 1.34 1.34 1.29 1.18
0.16 0.14 0.09 0.11 0.16 0.16 0.22 0.26 0.25 0.40 0.54 0.77 0.74 0.89 0.88 0.67 0.60 0.52 0.55 0.52 0.44 0.43 0.36 0.33 0.36 0.38 0.42 0.42 0.46 0.54 0.61 0.68 0.73 0.73 0.71 0.74 0.80 0.90 0.97 1.04 1.07 1.11 1.12 1.06
0.09 0.08 0.08 0.08 0.12 0.16 0.18 0.25 0.38 0.57 0.68 0.71 0.74 0.99 1.10 0.98 0.84 0.69 0.66 0.60 0.45 0.37 0.32 0.30 0.30 0.33 0.41 0.50 0.58 0.64 0.64 0.59 0.56 0.55 0.56 0.54 0.60 0.66 0.72 0.76 0.79 0.79 0.81 0.85
0.05 0.05 0.08 0.15 0.19 0.19 0.19 0.24 0.39 0.52 0.55 0.62 0.76 0.83 0.66 0.68 0.77 0.85 0.90 0.76 0.51 0.37 0.31 0.30 0.28 0.32 0.36 0.46 0.53 0.59 0.60 0.57 0.55 0.53 0.53 0.53 0.52 0.52 0.55 0.62 0.63 0.65 0.67 0.69
0.04 0.05 0.09 0.16 0.15 0.10 0.15 0.23 0.36 0.54 0.58 0.62 0.67 0.69 0.40 0.41 0.51 0.61 0.62 0.52 0.37 0.29 0.26 0.24 0.24 0.25 0.29 0.35 0.42 0.46 0.48 0.52 0.52 0.47 0.48 0.50 0.48 0.45 0.47 0.49 0.50 0.53 0.57 0.60
0.04 0.06 0.14 0.35 0.35 0.16 0.17 0.16 0.24 0.35 0.44 0.51 0.62 0.68 0.40 0.39 0.48 0.49 0.48 0.41 0.32 0.28 0.26 0.25 0.24 0.24 0.26 0.32 0.39 0.43 0.44 0.48 0.50 0.47 0.47 0.45 0.47 0.48 0.46 0.40 0.39 0.40 0.44 0.51
0.04 0.04 0.11 0.35 0.39 0.18 0.12 0.14 0.18 0.26 0.39 0.38 0.35 0.45 0.43 0.41 0.48 0.45 0.40 0.33 0.27 0.23 0.23 0.22 0.24 0.26 0.27 0.27 0.29 0.34 0.42 0.50 0.46 0.43 0.43 0.41 0.40 0.40 0.43 0.41 0.37 0.36 0.38 0.43
0.03 0.04 0.06 0.12 0.14 0.14 0.13 0.13 0.14 0.18 0.21 0.30 0.28 0.39 0.44 0.40 0.38 0.33 0.31 0.27 0.22 0.20 0.19 0.17 0.17 0.18 0.19 0.22 0.25 0.29 0.30 0.38 0.44 0.46 0.42 0.41 0.40 0.37 0.35 0.33 0.31 0.31 0.31 0.31
0.04 0.03 0.05 0.13 0.20 0.22 0.22 0.19 0.16 0.15 0.16 0.21 0.24 0.33 0.30 0.27 0.28 0.28 0.26 0.25 0.23 0.18 0.14 0.12 0.11 0.11 0.12 0.14 0.18 0.21 0.23 0.28 0.34 0.36 0.35 0.37 0.38 0.37 0.37 0.31 0.28 0.27 0.28 0.30
0.05 0.04 0.05 0.11 0.27 0.29 0.32 0.21 0.19 0.18 0.17 0.26 0.39 0.40 0.30 0.29 0.26 0.21 0.19 0.16 0.13 0.10 0.08 0.07 0.07 0.07 0.08 0.07 0.10 0.17 0.21 0.22 0.26 0.28 0.31 0.34 0.37 0.40 0.39 0.30 0.27 0.26 0.28 0.30
0.05 0.07 0.11 0.14 0.26 0.37 0.33 0.14 0.11 0.13 0.12 0.13 0.18 0.19 0.18 0.20 0.18 0.14 0.11 0.08 0.06 0.04 0.03 0.03 0.03 0.03 0.03 0.05 0.08 0.15 0.21 0.25 0.26 0.32 0.36 0.38 0.39 0.41 0.41 0.36 0.33 0.34 0.35 0.35
0.06 0.06 0.09 0.12 0.18 0.27 0.19 0.13 0.13 0.15 0.15 0.08 0.09 0.10 0.09 0.08 0.08 0.08 0.05 0.03 0.02 0.01 0.01 0.02 0.02 0.03 0.03 0.06 0.10 0.16 0.21 0.26 0.32 0.38 0.42 0.43 0.43 0.45 0.45 0.44 0.45 0.47 0.49 0.43
0.08 0.08 0.11 0.11 0.18 0.27 0.20 0.15 0.13 0.14 0.26 0.15 0.10 0.08 0.05 0.04 0.08 0.09 0.03 0.02 0.01 0.01 0.01 0.02 0.02 0.04 0.06 0.09 0.14 0.22 0.26 0.32 0.37 0.37 0.39 0.38 0.43 0.49 0.52 0.54 0.57 0.59 0.61 0.54
0.17 0.14 0.14 0.14 0.17 0.19 0.20 0.14 0.11 0.22 0.30 0.10 0.07 0.04 0.04 0.04 0.07 0.06 0.03 0.02 0.02 0.02 0.02 0.03 0.04 0.08 0.14 0.14 0.19 0.26 0.29 0.33 0.35 0.38 0.40 0.41 0.44 0.50 0.54 0.63 0.70 0.74 0.72 0.69
0.23 0.23 0.23 0.23 0.30 0.29 0.23 0.15 0.17 0.21 0.14 0.09 0.07 0.05 0.04 0.04 0.03 0.03 0.03 0.03 0.03 0.03 0.04 0.04 0.07 0.12 0.18 0.20 0.27 0.31 0.33 0.34 0.38 0.43 0.43 0.44 0.49 0.42 0.43 0.64 0.75 0.81 0.84 0.78
0.17 0.22 0.29 0.31 0.30 0.23 0.21 0.17 0.17 0.17 0.14 0.11 0.08 0.06 0.05 0.05 0.04 0.03 0.04 0.04 0.04 0.04 0.05 0.07 0.11 0.16 0.18 0.24 0.36 0.46 0.46 0.46 0.50 0.54 0.56 0.57 0.56 0.57 0.62 0.72 0.78 0.81 0.84 0.83
0.19 0.19 0.23 0.27 0.27 0.23 0.20 0.19 0.15 0.11 0.11 0.09 0.05 0.05 0.06 0.06 0.05 0.06 0.06 0.06 0.06 0.05 0.06 0.08 0.12 0.17 0.23 0.28 0.39 0.50 0.55 0.55 0.58 0.64 0.66 0.70 0.74 0.72 0.75 0.86 0.89 0.86 0.87 0.89
0.18 0.16 0.21 0.26 0.28 0.27 0.26 0.22 0.17 0.10 0.07 0.05 0.05 0.05 0.05 0.06 0.07 0.06 0.06 0.06 0.07 0.07 0.07 0.10 0.15 0.22 0.27 0.31 0.38 0.46 0.54 0.61 0.70 0.72 0.70 0.74 0.82 0.89 0.90 0.91 0.90 0.86 0.88 0.83
0.21 0.19 0.22 0.25 0.25 0.23 0.18 0.17 0.12 0.09 0.09 0.07 0.05 0.04 0.04 0.05 0.05 0.05 0.05 0.05 0.07 0.09 0.11 0.14 0.19 0.25 0.29 0.32 0.40 0.49 0.59 0.69 0.82 0.82 0.77 0.76 0.78 0.85 0.88 0.88 0.76 0.63 0.60 0.53

GEFSCGP_prec_meanprecacc_132.txt.gz
Total_Precipitation_Accumulation
0.00 0.00 0.00 0.00 0.01 0.01 0.01 0.04 0.10 0.12 0.10 0.16 0.27 0.47 0.61 0.59 0.73 1.09 1.25 1.16 1.11 1.25 1.53 1.74 1.91 1.93 2.11 2.17 2.29 2.36 2.56 2.95 3.34 3.29 3.02 2.82 2.52 2.30 2.12 2.00 1.92 1.94 1.96 2.14
0.00 0.01 0.00 0.01 0.01 0.01 0.02 0.06 0.13 0.14 0.12 0.20 0.34 0.56 0.70 0.79 1.01 1.15 1.05 1.00 1.14 1.33 1.64 1.89 1.99 2.02 2.15 2.37 2.71 2.85 2.96 3.35 3.59 3.47 3.31 3.11 2.91 2.56 2.46 2.36 2.21 1.99 1.89 2.01
0.01 0.01 0.01 0.01 0.01 0.02 0.03 0.06 0.11 0.11 0.18 0.29 0.37 0.71 0.86 0.97 1.11 1.09 1.04 1.19 1.23 1.22 1.49 1.64 1.60 1.62 1.70 1.84 2.06 2.36 2.72 3.14 3.28 3.35 3.29 3.18 3.10 2.69 2.54 2.40 2.24 2.04 1.92 1.89
0.01 0.01 0.01 0.01 0.02 0.02 0.05 0.05 0.05 0.08 0.15 0.39 0.45 0.90 1.09 1.29 1.37 1.19 1.14 1.12 1.12 1.29 1.49 1.38 1.23 1.31 1.37 1.35 1.59 1.89 2.24 2.56 2.79 2.93 2.97 3.00 2.90 2.70 2.64 2.47 2.14 1.92 1.80 1.81
0.02 0.02 0.02 0.04 0.02 0.02 0.04 0.04 0.06 0.09 0.16 0.34 0.38 0.70 1.13 1.46 1.57 1.23 1.12 1.06 1.11 1.27 1.23 1.13 1.13 1.22 1.26 1.31 1.55 1.76 1.93 2.20 2.45 2.55 2.55 2.56 2.46 2.37 2.31 2.17 1.94 1.78 1.67 1.61
0.02 0.04 0.04 0.03 0.03 0.04 0.04 0.07 0.12 0.16 0.30 0.55 0.47 0.60 1.07 1.39 1.23 1.06 1.01 0.86 0.92 1.02 1.05 1.06 1.12 1.17 1.24 1.47 1.72 1.89 2.03 2.22 2.33 2.19 2.04 2.02 2.03 2.06 1.97 1.84 1.68 1.52 1.43 1.36
0.13 0.10 0.07 0.05 0.06 0.06 0.07 0.15 0.45 0.70 0.96 0.87 0.59 0.71 1.24 1.07 0.78 0.72 0.81 0.80 0.79 0.79 0.86 0.89 1.07 1.29 1.37 1.41 1.42 1.63 1.90 2.13 2.12 1.93 1.76 1.68 1.68 1.73 1.72 1.62 1.52 1.45 1.33 1.25
0.28 0.25 0.12 0.09 0.11 0.12 0.11 0.21 0.56 0.70 0.72 0.73 0.61 0.97 1.33 0.94 0.66 0.57 0.64 0.66 0.58 0.53 0.46 0.47 0.57 0.69 0.71 0.71 0.70 0.77 0.91 1.10 1.18 1.14 1.14 1.13 1.17 1.24 1.29 1.39 1.34 1.34 1.29 1.18
0.16 0.14 0.09 0.11 0.16 0.16 0.22 0.26 0.25 0.41 0.54 0.78 0.74 0.89 0.88 0.67 0.60 0.52 0.55 0.52 0.45 0.43 0.36 0.33 0.37 0.38 0.43 0.43 0.47 0.56 0.64 0.71 0.76 0.74 0.72 0.74 0.80 0.90 0.97 1.04 1.07 1.11 1.12 1.06
0.09 0.08 0.08 0.08 0.13 0.16 0.19 0.25 0.38 0.58 0.70 0.72 0.74 0.99 1.10 0.98 0.84 0.69 0.66 0.60 0.46 0.37 0.32 0.30 0.31 0.33 0.41 0.50 0.59 0.65 0.65 0.61 0.56 0.56 0.56 0.54 0.60 0.66 0.72 0.76 0.79 0.79 0.81 0.85
0.06 0.05 0.08 0.15 0.19 0.19 0.19 0.25 0.39 0.53 0.56 0.62 0.76 0.83 0.66 0.68 0.77 0.85 0.90 0.76 0.51 0.37 0.31 0.30 0.28 0.32 0.37 0.46 0.53 0.59 0.60 0.58 0.55 0.53 0.53 0.53 0.52 0.52 0.55 0.62 0.63 0.66 0.67 0.69
0.05 0.06 0.09 0.17 0.15 0.10 0.15 0.23 0.36 0.55 0.59 0.62 0.67 0.69 0.40 0.41 0.51 0.61 0.62 0.52 0.37 0.29 0.26 0.24 0.24 0.25 0.29 0.35 0.42 0.46 0.48 0.52 0.52 0.47 0.48 0.50 0.48 0.45 0.47 0.49 0.50 0.53 0.57 0.60
0.05 0.07 0.15 0.36 0.36 0.16 0.17 0.16 0.24 0.35 0.44 0.52 0.63 0.68 0.40 0.39 0.48 0.49 0.48 0.41 0.32 0.28 0.26 0.25 0.24 0.24 0.26 0.32 0.39 0.43 0.44 0.48 0.50 0.47 0.47 0.45 0.47 0.48 0.46 0.40 0.39 0.40 0.44 0.51
0.05 0.05 0.12 0.37 0.40 0.18 0.12 0.14 0.18 0.26 0.39 0.39 0.35 0.45 0.43 0.41 0.48 0.45 0.40 0.33 0.27 0.23 0.23 0.22 0.24 0.26 0.27 0.27 0.29 0.34 0.42 0.50 0.46 0.43 0.43 0.41 0.40 0.40 0.43 0.41 0.37 0.36 0.38 0.43
0.04 0.05 0.07 0.13 0.15 0.15 0.13 0.13 0.14 0.18 0.21 0.30 0.28 0.39 0.44 0.40 0.38 0.33 0.31 0.28 0.23 0.20 0.19 0.17 0.17 0.18 0.20 0.22 0.25 0.29 0.30 0.38 0.44 0.46 0.43 0.41 0.40 0.37 0.35 0.33 0.31 0.31 0.31 0.31
0.05 0.04 0.05 0.13 0.20 0.22 0.22 0.19 0.16 0.15 0.16 0.21 0.24 0.33 0.30 0.27 0.28 0.28 0.26 0.25 0.23 0.18 0.14 0.12 0.11 0.11 0.12 0.14 0.18 0.21 0.23 0.28 0.34 0.37 0.35 0.38 0.39 0.37 0.37 0.31 0.28 0.27 0.28 0.30
0.06 0.06 0.06 0.12 0.27 0.29 0.32 0.21 0.19 0.18 0.17 0.26 0.39 0.40 0.30 0.29 0.26 0.21 0.19 0.16 0.13 0.10 0.08 0.07 0.07 0.07 0.08 0.07 0.10 0.17 0.21 0.23 0.26 0.29 0.31 0.34 0.37 0.40 0.39 0.30 0.27 0.26 0.28 0.30
0.07 0.10 0.13 0.15 0.28 0.38 0.33 0.14 0.11 0.13 0.12 0.13 0.18 0.19 0.19 0.20 0.18 0.14 0.11 0.08 0.06 0.04 0.03 0.03 0.03 0.03 0.03 0.05 0.08 0.15 0.22 0.25 0.27 0.32 0.36 0.38 0.39 0.42 0.41 0.36 0.33 0.34 0.35 0.35
0.07 0.08 0.11 0.14 0.21 0.28 0.19 0.13 0.13 0.15 0.15 0.08 0.09 0.11 0.09 0.08 0.08 0.08 0.05 0.04 0.02 0.02 0.01 0.02 0.02 0.03 0.04 0.06 0.11 0.17 0.21 0.27 0.33 0.38 0.42 0.43 0.44 0.45 0.45 0.44 0.45 0.47 0.49 0.43
0.09 0.10 0.13 0.14 0.20 0.28 0.20 0.15 0.13 0.14 0.27 0.15 0.10 0.08 0.06 0.04 0.08 0.09 0.04 0.02 0.02 0.01 0.01 0.02 0.02 0.04 0.06 0.09 0.14 0.22 0.26 0.32 0.37 0.37 0.39 0.39 0.44 0.49 0.52 0.54 0.57 0.59 0.61 0.54
0.21 0.17 0.17 0.17 0.20 0.19 0.20 0.14 0.11 0.23 0.31 0.10 0.07 0.05 0.04 0.05 0.07 0.06 0.03 0.02 0.03 0.02 0.02 0.03 0.04 0.08 0.14 0.14 0.19 0.26 0.29 0.34 0.36 0.39 0.40 0.41 0.45 0.51 0.54 0.63 0.70 0.74 0.72 0.69
0.28 0.29 0.28 0.28 0.34 0.31 0.23 0.15 0.18 0.22 0.15 0.09 0.07 0.05 0.04 0.04 0.03 0.03 0.03 0.03 0.03 0.03 0.04 0.04 0.07 0.13 0.19 0.21 0.28 0.32 0.33 0.34 0.39 0.43 0.44 0.44 0.49 0.43 0.43 0.65 0.75 0.81 0.84 0.78
0.21 0.26 0.33 0.34 0.33 0.23 0.21 0.17 0.17 0.17 0.14 0.11 0.08 0.06 0.05 0.05 0.04 0.04 0.04 0.05 0.04 0.04 0.05 0.08 0.12 0.17 0.19 0.25 0.37 0.47 0.47 0.47 0.50 0.54 0.57 0.58 0.56 0.57 0.62 0.72 0.79 0.81 0.84 0.83
0.21 0.21 0.26 0.30 0.28 0.23 0.20 0.19 0.15 0.11 0.12 0.10 0.06 0.05 0.06 0.07 0.06 0.07 0.07 0.06 0.06 0.06 0.07 0.09 0.13 0.18 0.23 0.29 0.39 0.51 0.56 0.56 0.59 0.65 0.67 0.71 0.75 0.73 0.75 0.86 0.89 0.87 0.87 0.89
0.20 0.18 0.23 0.29 0.30 0.28 0.27 0.22 0.17 0.12 0.09 0.07 0.05 0.05 0.06 0.07 0.08 0.07 0.07 0.07 0.08 0.08 0.08 0.10 0.16 0.23 0.27 0.31 0.39 0.47 0.55 0.62 0.71 0.73 0.71 0.75 0.82 0.89 0.91 0.91 0.90 0.86 0.89 0.83
0.23 0.21 0.25 0.28 0.27 0.25 0.19 0.18 0.14 0.11 0.11 0.08 0.06 0.05 0.05 0.07 0.07 0.06 0.06 0.07 0.08 0.09 0.11 0.15 0.20 0.26 0.30 0.33 0.41 0.49 0.60 0.70 0.83 0.83 0.78 0.76 0.78 0.85 0.88 0.89 0.76 0.64 0.60 0.53

GEFSCGP_prec_meanprecacc_138.txt.gz
Total_Precipitation_Accumulation
0.00 0.00 0.00 0.00 0.01 0.01 0.01 0.04 0.10 0.12 0.10 0.16 0.27 0.47 0.62 0.59 0.74 1.10 1.30 1.24 1.20 1.37 1.66 1.88 2.04 2.03 2.22 2.30 2.41 2.48 2.68 3.06 3.43 3.39 3.11 2.90 2.59 2.37 2.18 2.03 1.94 1.96 1.97 2.15
0.00 0.01 0.00 0.01 0.01 0.01 0.02 0.06 0.13 0.14 0.12 0.20 0.34 0.56 0.71 0.79 1.01 1.16 1.08 1.06 1.21 1.41 1.75 2.01 2.11 2.13 2.25 2.49 2.81 2.93 3.04 3.42 3.67 3.55 3.39 3.17 2.98 2.62 2.51 2.39 2.24 2.00 1.89 2.01
0.01 0.01 0.01 0.01 0.01 0.02 0.03 0.06 0.12 0.12 0.18 0.29 0.37 0.73 0.87 0.98 1.12 1.11 1.07 1.22 1.27 1.28 1.58 1.72 1.69 1.76 1.84 1.96 2.15 2.42 2.77 3.19 3.34 3.42 3.35 3.24 3.16 2.74 2.58 2.44 2.27 2.05 1.92 1.89
0.01 0.01 0.01 0.02 0.02 0.02 0.06 0.05 0.05 0.08 0.15 0.40 0.46 0.94 1.12 1.29 1.37 1.21 1.16 1.15 1.15 1.33 1.56 1.46 1.31 1.43 1.50 1.44 1.65 1.94 2.28 2.62 2.85 2.99 3.03 3.06 2.96 2.76 2.68 2.50 2.17 1.93 1.80 1.81
0.02 0.02 0.02 0.04 0.03 0.02 0.04 0.04 0.06 0.09 0.16 0.36 0.40 0.73 1.17 1.47 1.58 1.24 1.13 1.08 1.15 1.30 1.28 1.21 1.22 1.31 1.34 1.37 1.58 1.80 1.99 2.28 2.52 2.62 2.61 2.61 2.51 2.42 2.35 2.20 1.96 1.79 1.67 1.61
0.02 0.04 0.04 0.03 0.03 0.04 0.04 0.07 0.12 0.17 0.32 0.63 0.53 0.63 1.11 1.40 1.24 1.07 1.03 0.88 0.96 1.05 1.10 1.15 1.19 1.23 1.29 1.51 1.75 1.94 2.09 2.29 2.38 2.24 2.08 2.07 2.08 2.09 2.00 1.86 1.70 1.53 1.43 1.36
0.13 0.10 0.07 0.05 0.06 0.06 0.07 0.15 0.51 0.83 1.12 1.00 0.63 0.73 1.26 1.08 0.78 0.72 0.81 0.81 0.81 0.82 0.90 0.95 1.11 1.32 1.41 1.45 1.45 1.67 1.95 2.17 2.15 1.96 1.80 1.72 1.71 1.76 1.74 1.64 1.54 1.46 1.33 1.25
0.28 0.25 0.13 0.09 0.11 0.12 0.12 0.22 0.62 0.80 0.83 0.80 0.64 0.99 1.34 0.95 0.66 0.57 0.64 0.66 0.59 0.54 0.49 0.50 0.60 0.71 0.73 0.73 0.72 0.80 0.94 1.12 1.20 1.17 1.16 1.16 1.19 1.25 1.31 1.41 1.36 1.35 1.29 1.18
0.16 0.14 0.10 0.11 0.16 0.16 0.22 0.27 0.26 0.42 0.55 0.80 0.76 0.90 0.90 0.68 0.60 0.52 0.55 0.52 0.45 0.43 0.37 0.35 0.38 0.40 0.44 0.44 0.48 0.58 0.67 0.74 0.78 0.77 0.75 0.75 0.81 0.92 0.99 1.05 1.08 1.11 1.12 1.06
0.10 0.10 0.09 0.09 0.13 0.16 0.19 0.26 0.39 0.59 0.74 0.77 0.79 1.04 1.16 1.02 0.85 0.69 0.66 0.60 0.46 0.37 0.32 0.30 0.31 0.34 0.42 0.51 0.60 0.66 0.67 0.63 0.59 0.57 0.58 0.55 0.61 0.67 0.74 0.76 0.79 0.80 0.81 0.85
0.06 0.06 0.10 0.17 0.19 0.19 0.19 0.25 0.39 0.54 0.57 0.65 0.85 0.95 0.74 0.72 0.78 0.85 0.90 0.76 0.51 0.37 0.31 0.30 0.29 0.32 0.38 0.47 0.54 0.60 0.61 0.59 0.56 0.54 0.54 0.53 0.53 0.53 0.56 0.62 0.63 0.66 0.67 0.69
0.07 0.07 0.11 0.21 0.17 0.12 0.16 0.24 0.36 0.57 0.63 0.64 0.70 0.76 0.43 0.42 0.52 0.61 0.63 0.52 0.37 0.29 0.26 0.25 0.24 0.26 0.29 0.36 0.43 0.46 0.49 0.53 0.53 0.48 0.49 0.51 0.49 0.46 0.48 0.49 0.50 0.53 0.57 0.60
0.09 0.10 0.20 0.43 0.42 0.20 0.19 0.18 0.25 0.36 0.45 0.53 0.65 0.73 0.42 0.40 0.49 0.49 0.48 0.41 0.32 0.28 0.26 0.25 0.24 0.25 0.26 0.32 0.40 0.43 0.44 0.49 0.50 0.48 0.48 0.46 0.48 0.49 0.46 0.41 0.39 0.40 0.44 0.51
0.08 0.09 0.17 0.46 0.51 0.30 0.21 0.18 0.19 0.27 0.40 0.39 0.36 0.48 0.46 0.43 0.49 0.45 0.40 0.33 0.27 0.23 0.23 0.22 0.24 0.26 0.27 0.27 0.29 0.34 0.42 0.50 0.47 0.44 0.44 0.42 0.41 0.41 0.43 0.41 0.38 0.36 0.38 0.43
0.06 0.08 0.10 0.17 0.21 0.23 0.24 0.20 0.17 0.19 0.22 0.31 0.31 0.42 0.49 0.46 0.41 0.34 0.31 0.28 0.23 0.20 0.19 0.17 0.18 0.18 0.20 0.22 0.25 0.29 0.30 0.39 0.44 0.47 0.44 0.42 0.41 0.38 0.35 0.34 0.31 0.31 0.31 0.31
0.09 0.08 0.08 0.17 0.24 0.25 0.28 0.24 0.18 0.16 0.17 0.22 0.26 0.34 0.32 0.30 0.30 0.28 0.27 0.25 0.24 0.19 0.15 0.12 0.11 0.11 0.12 0.14 0.18 0.21 0.23 0.28 0.34 0.37 0.36 0.39 0.39 0.38 0.37 0.31 0.28 0.27 0.28 0.31
0.14 0.13 0.12 0.15 0.29 0.33 0.37 0.25 0.20 0.19 0.18 0.27 0.41 0.41 0.31 0.31 0.26 0.22 0.19 0.16 0.14 0.11 0.09 0.07 0.07 0.07 0.08 0.07 0.10 0.17 0.21 0.23 0.26 0.29 0.32 0.34 0.38 0.41 0.39 0.30 0.27 0.27 0.28 0.31
0.15 0.19 0.21 0.19 0.34 0.45 0.35 0.15 0.12 0.14 0.12 0.13 0.19 0.20 0.19 0.22 0.19 0.14 0.11 0.09 0.07 0.05 0.04 0.03 0.03 0.03 0.03 0.05 0.08 0.15 0.22 0.26 0.27 0.32 0.37 0.38 0.39 0.42 0.42 0.36 0.33 0.34 0.35 0.36
0.11 0.17 0.18 0.20 0.31 0.38 0.24 0.15 0.14 0.16 0.17 0.09 0.09 0.11 0.10 0.09 0.08 0.09 0.05 0.04 0.02 0.02 0.01 0.02 0.02 0.03 0.04 0.06 0.11 0.17 0.21 0.27 0.33 0.38 0.42 0.43 0.44 0.45 0.45 0.45 0.46 0.48 0.50 0.44
0.14 0.17 0.22 0.21 0.31 0.41 0.29 0.20 0.15 0.16 0.31 0.16 0.11 0.08 0.06 0.05 0.10 0.12 0.05 0.02 0.02 0.01 0.01 0.02 0.02 0.04 0.07 0.09 0.14 0.22 0.26 0.33 0.37 0.38 0.39 0.39 0.44 0.50 0.52 0.54 0.58 0.60 0.62 0.56
0.32 0.30 0.28 0.27 0.30 0.28 0.29 0.23 0.16 0.30 0.39 0.12 0.07 0.05 0.04 0.05 0.08 0.07 0.04 0.03 0.03 0.02 0.02 0.03 0.04 0.08 0.14 0.14 0.20 0.26 0.29 0.35 0.37 0.40 0.42 0.43 0.46 0.52 0.55 0.64 0.71 0.75 0.73 0.69
0.42 0.43 0.41 0.40 0.48 0.45 0.34 0.28 0.31 0.35 0.19 0.10 0.07 0.05 0.04 0.04 0.03 0.03 0.04 0.03 0.03 0.03 0.04 0.05 0.07 0.13 0.19 0.21 0.28 0.32 0.34 0.36 0.41 0.45 0.46 0.46 0.51 0.44 0.44 0.65 0.75 0.82 0.84 0.78
0.34 0.40 0.45 0.46 0.45 0.36 0.32 0.27 0.27 0.23 0.16 0.11 0.08 0.06 0.05 0.05 0.05 0.04 0.05 0.05 0.05 0.04 0.06 0.08 0.13 0.18 0.20 0.26 0.38 0.48 0.48 0.49 0.52 0.56 0.58 0.59 0.58 0.58 0.63 0.74 0.80 0.83 0.86 0.85
0.35 0.33 0.39 0.45 0.45 0.41 0.37 0.33 0.25 0.15 0.13 0.10 0.06 0.05 0.06 0.07 0.06 0.07 0.07 0.07 0.07 0.06 0.07 0.09 0.13 0.19 0.25 0.30 0.41 0.53 0.57 0.57 0.60 0.66 0.68 0.72 0.76 0.74 0.76 0.88 0.91 0.89 0.90 0.91
0.33 0.30 0.38 0.46 0.48 0.47 0.47 0.40 0.30 0.17 0.11 0.08 0.06 0.05 0.06 0.07 0.08 0.07 0.07 0.07 0.08 0.08 0.08 0.11 0.16 0.24 0.28 0.33 0.42 0.49 0.56 0.63 0.72 0.75 0.73 0.77 0.84 0.91 0.93 0.92 0.91 0.88 0.90 0.85
0.33 0.29 0.34 0.40 0.38 0.38 0.33 0.29 0.22 0.16 0.12 0.08 0.06 0.05 0.06 0.08 0.09 0.07 0.07 0.07 0.08 0.10 0.12 0.16 0.21 0.27 0.32 0.36 0.44 0.53 0.62 0.72 0.85 0.85 0.80 0.78 0.80 0.87 0.90 0.90 0.78 0.66 0.62 0.55